Regional Weather Roundup
Issued by NWS Newport/Morehead, NC

Current Version | Previous Version | Graphics & Text | Print | Product List | Glossary Off
Versions: 1 2 3 4 5 6 7 8 9 10 11 12 13 14 15 16 17 18 19 20 21 22 23 24 25 26 27 28 29 30 31 32 33 34 35 36 37 38 39 40 41 42 43 44 45 46 47 48 49 50

000
ASUS42 KMHX 062024
RWRMHX
WEATHER ROUNDUP FOR EASTERN NORTH CAROLINA
NATIONAL WEATHER SERVICE NEWPORT/MOREHEAD CITY NC
300 PM EST FRI MAR 06 2015

NOTE: "FAIR" INDICATES FEW OR NO CLOUDS BELOW 12,000 FEET
WITH NO SIGNIFICANT WEATHER AND/OR OBSTRUCTIONS TO VISIBILITY

NCZ015>017-031-032-045>047-102-103-062100-
NORTH COAST

CITY           SKY/WX    TMP DP  RH WIND       PRES   REMARKS
EDENTON        SUNNY     35  18  51 N12       30.43F
ELIZABETH CITY SUNNY     33  21  61 N13       30.44F
KITTY HAWK     CLOUDY    29  23  79 N13G24    30.41S WCI  18
MANTEO         CLOUDY    28  22  78 N18G25    30.43S WCI  16

$$

NCZ045>047-081-094-103-104-062100-
CENTRAL COAST

CITY           SKY/WX    TMP DP  RH WIND       PRES   REMARKS
FRISCO         CLOUDY    31  26  82 N14G28    30.38S
SWANQUARTER      N/A     34 N/A N/A N3G17     30.36S

$$

NCZ095-097-098-100-101-062100-
SOUTHERN COAST

CITY           SKY/WX    TMP DP  RH WIND       PRES   REMARKS
BEAUFORT       CLOUDY    36  22  56 N14G24    30.38F
CEDAR ISLAND     N/A     34 N/A N/A N20G26    30.41S
JACKSONVILLE   PTSUNNY   41  23  48 N13       30.38F
PINEY ISLAND     N/A    N/A N/A N/A MISG      30.39F
WILMINGTON     CLOUDY    43  25  49 NW13      30.37F


$$

NCZ011>013-027>030-043-044-078>080-089-090>093-098-062100-
COASTAL PLAIN

CITY           SKY/WX    TMP DP  RH WIND       PRES   REMARKS
AHOSKIE        SUNNY     33  16  49 N8        30.46F
CLINTON        SUNNY     40  19  43 NE6       30.42S
ELIZABETHTOWN  SUNNY     41  18  38 N7        30.39S
GOLDSBORO      SUNNY     36  22  55 N10       30.40F
GREENVILLE     SUNNY     36  19  51 NE6       30.43F
HAVELOCK       CLOUDY    38  20  48 N12       30.40F
KENANSVILLE    SUNNY     38  17  42 N7        30.42S
KINSTON        SUNNY     37  19  48 N9        30.43F
NEW BERN       PTSUNNY   41  22  46 N14       30.40F
RICHLANDS      SUNNY     39  19  45 N12       30.39F
ROCKY MOUNT    SUNNY     36  15  42 NE7G16    30.44F
WASHINGTON     SUNNY     36  21  53 N9        30.42S
WHITEVILLE     MOSUNNY   43  19  38 N5        30.38S

$$

AMZ130-135-150-152-154-156-158-170-250-252-270-ANZ085-086-088-633-658-670-062100-
MARINE OBSERVATIONS

STATION/POSITION TIME  TEMP    WIND        PRES    WAVE   SWELL
                       AIR SEA DIR/SP/G            HT/PER HT/PER
                 (UTC) (F)     (DEG/KT/KT) (MB)    (FT/S) (FT/S)
CHESAPEAKE LIGHT 2000   25      10/ 17/ 18 1032.0
64 E VA BEACH    1950   36 51  360/ 21/ 27 1028.3    8/ 8   5/ 8
DUCK             2000   26 35  360/ 23/ 26 1029.2
2 E DUCK         1911      35                N/A     7/ 8   2/11
10 NE DUCK       1922      37                N/A     8/ 8   2/11
OREGON INLET     2000   29 38  350/ 18/ 23 1029.5
HATTERAS CG      2000   32 43  360/ 25/ 29 1028.7
CAPE LOOKOUT     2000          360/ 16/ 19 1028.4
BEAUFORT LAB     2000   36 47   10/ 14/ 19 1027.9
27 SE WRIGHTSVLE NOT AVBL
5 SE WRIGHTSVLE  NOT AVBL
225 S CAPE HAT   1950   64 72   40/ 17/ 21 1021.6    9/10   7/10
41 SE CHARLESTON 1950   43 67   20/ 23/ 29 1026.2    9/ 8

$$


USA.gov is the U.S. government's official web portal to all federal, state and local government web resources and services.